星链-38036(STARLINK-38036)

导读

**STARLINK-38036(NORAD编号69756)** 是美国SpaceX公司“星链”(Starlink)低轨卫星互联网星座的组网卫星之一,为2026年6月下旬猎鹰9号火箭批量发射入轨的新一代小型通信卫星。该卫星运行于距地球约550千米的近地轨道,轨道周期约93分钟,主要承担低时延、高速率卫星宽带信号转发任务,为地面偏远、移动场景用户提供互联网接入服务。其采用轻质化平板设计,具备自主避碰能力,设计寿命约5年,寿命末期将主动离轨销毁,降低空间碎片风险,目前处于在轨测试或初期运营阶段。(151字)

基本信息
目录编号:
69756
目录名称:
STARLINK-38036
国际标识:
2026-150T
轨道中心:
EARTH
卫星名称:
星链-38036
卫星全名:
星链-38036(STARLINK-38036)
卫星状态:
在轨 (已飞行64 天)
发射日期:
2026-07-02 UTC
国别 :
美国 (US)
星等 :
--
轨道信息
数据来源 国际轨道数据
星历时间: 2026-09-04T08:12:14+0800
14小时前
查看轨道信息
半长轴: 6843.663km
偏心率: 0.0001884
轨道倾角: 97.287°
近地点辐角 90.994°
升交点赤经 86.249°
平近点角 269.152°
近地点: 464.236km
远地点: 466.816km
周期: 93.906分钟
每日圈数: 15.33451
详细信息
固有亮度:
5
最大亮度:
2.5
卫星平台:
Starlink V1.0
覆盖范围:
全球
运营商:
太空探索技术公司
运营商所在国:
美国
制造商(研发单位):
太空探索技术公司
制造商所在国:
美国
使用方式:
暂无
卫星简介
Starlink 计划是 SpaceX 推出的全球卫星互联网项目,通过发射低轨道卫星,为全球尤其是偏远地区提供高速、低延迟的互联网服务。自 2019 年起,Starlink 已部署数千颗卫星,旨在缩小全球数字鸿沟,推动互联网普及。该项目还为军事、航空等行业提供通信支持,带来广泛经济效益。
2D轨道图
3D轨道图
轨道高度分析图
轨道倾角分析图
轨道综合分析图
查看轨道综合分析图